User: anonymous   Login
Location: Oberwangen
(47.4286°N, 8.9679°E)
Time: 07:30:10
(UTC+00:00)
Language:

Iridium 2 - Orbit

View from above orbital plane
View from above orbital plane
View from above satellite
View from above satellite

Ground track
Ground track

The orbit data is extracted from the following two-line orbital elements,

1 25527U 98066A   21264.30146833  .00001863  00000-0  84988-4 0  9992
2 25527  85.5340 190.8327 0010875 108.3281 251.9144 15.19853153254594
Epoch (UTC): 21 September 2021 07:14:06
Eccentricity: 0.0010875
inclination: 85.5340°
perigee height: 499 km
apogee height: 514 km
right ascension of ascending node: 190.8327°
argument of perigee: 108.3281°
revolutions per day: 15.19853153
mean anomaly at epoch: 251.9144°
orbit number at epoch: 25459

The dashed part of the orbit path shows where the satellite is in the earth's shadow,  

DLR